User: anonymous   Login
Location: Byszew
(52.1813°N, 19.2693°E)
Time: 10:43:50
(UTC+00:00)
Language:

AAUSAT CUBESAT 2 - Orbit

View from above orbital plane
View from above orbital plane
View from above satellite
View from above satellite

Ground track
Ground track

The orbit data is extracted from the following two-line orbital elements,

1 32788U 08021F   22180.86573464  .00001267  00000-0  11317-3 0  9997
2 32788  97.5336 165.7418 0013036  81.1529 279.1169 14.97568943770290
Epoch (UTC): 29 June 2022 20:46:39
Eccentricity: 0.0013036
inclination: 97.5336°
perigee height: 565 km
apogee height: 583 km
right ascension of ascending node: 165.7418°
argument of perigee: 81.1529°
revolutions per day: 14.97568943
mean anomaly at epoch: 279.1169°
orbit number at epoch: 77029

The dashed part of the orbit path shows where the satellite is in the earth's shadow,  

DLR